Погода в Рузаевке

Поиск расширенной информации на нашем сайте:

Полезная информация:

Новости сайта



02.01.2020
Опубликован Долгосрочный прогноз погоды по городам России и ближнего зарубежья на январь 2020 года.
Карты: Прогноз на январь и февраль 2020 года, Сравнение прогнозируемой аномалии приземной температуры воздуха на январь 2020 года по разным моделям.




Погода в Рузаевке - сегодня

Время (UTC), дата Ветер
(°,м/с) 
Видим.   Явления Облачность Т
(°С)
Тd
(°С)
f(%) Тe
(°С)
Pmin
(гПа)
dP
(гПа)
Po
(мм)
O2
(г/м3)
Тmin Tmax R s Состояние
почвы
12 22.10.21 210 (ЮЗ) 20000 м  {ливн. осадки}  10/10 600 м 
[Sc]
+2.6 +2.1 96 1012.5  1.6  739  294           
15 22.10.21 200 (Ю) н/о  слаб. морось  10/10 300 м 
[St]
+3.3 +3.1 99 +1  1013.4  0.9  739  294    +3.8       
18 22.10.21 200 (Ю) н/о  в посл. час морось  10/10 600 м 
[St]
+4.7 +3.7 93 +3  1013.4  739  292    +3.8     
21 22.10.21 210 (ЮЗ) н/о    10/10 600 м 
[Sc]
+5.6 +4.2 91 +3  1012.1  -1  738  291           
00 23.10.21 210 (ЮЗ) н/о    8/3 600 м средняя, верхняя 
[Sc|Ac trans|Ci sp]
+5.4 +3.3 86 +3  1011.5  -0.6  738  291           
03 23.10.21 220 (ЮЗ) 20000 м    8/8 600 м 
[Sc]
+5.4 +1.9 78 +3  1012.6  739  292           
06 23.10.21 200 (Ю) 20000 м    8/3 600 м кучево-дожд., средняя, верхняя 
[Cb calv|Ac trans|Ci fib]
+8.2 +2 65 +5  1013.9  1.6  740  289  +3.3    0.0     
09 23.10.21 230 (ЮЗ) 20000 м    9/9 600 м кучево-дожд. 
[Cb calv]
+11.4 +4.4 62 +10  1014.1  0.5  740  286           
12 23.10.21 230 (ЮЗ) 20000 м    9/9 600 м кучево-дожд. 
[Cb calv]
+12 +6.1 67 +11  1015  0.9  741  285           
15 23.10.21 230 (ЮЗ) н/о    6/3 600 м кучево-дожд., верхняя 
[Cb calv|Ci fib]
+9.3 +6.3 81 +8  1017.2  1.9  742  288    +12.5       
18 23.10.21 220 (ЮЗ) н/о    8/0 средняя, верхняя 
[Ac trans|Ci fib]
+8.3 +5.9 85 +8  1018.7  1.4  743  290    +12.5       
21 23.10.21 220 (ЮЗ) н/о    8/8 600 м 
[Sc]
+8.5 +6.3 86 +7  1019.3  0.6  744  290           
00 24.10.21 200 (Ю) н/о    9/9 600 м 
[Sc]
+9.4 +7.5 88 +8  1019.1  -0.1  744  288           
03 24.10.21 200 (Ю) 20000 м    6/3 600 м средняя, верхняя 
[Sc|Ac trans|Ci fib]
+7.2 +6.3 94 +6  1020.1  0.7  744  291           
06 24.10.21 200 (Ю) 4000 м  дымка  10/10 600 м 
[Sc]
+8.4 +7.1 92 +7  1020.9  0.9  745  290  +6.7         
09 24.10.21 220 (ЮЗ) 20000 м    8/4 600 м кучево-дожд., средняя 
[Cb calv|Ac trans]
+14 +8.2 68 +13  1018.5  -1.8  744  284           
12 24.10.21 210 (ЮЗ) 20000 м    6/3 600 м кучево-дожд., средняя, верхняя 
[Cb calv|Ac trans|Ci fib]
+13.2 -3.3 32 +12  1017.7  -0.9  743  286           
15 24.10.21 180 (Ю) н/о    4/4 600 м 
[Sc]
+8.2 -3.3 44 +6  1017.6  -0.5  743  291    +14.5       
18 24.10.21 190 (Ю) н/о    6/4 600 м средняя 
[Sc|Ac trans]
+5.6 -3.5 52 +4  1017  -0.9  742  293    +14.5       
21 24.10.21 210 (ЮЗ) н/о    4/4 600 м 
[Sc]
+4.8 -3.9 53 +3  1015.7  -1.3  741  294           
00 25.10.21 210 (ЮЗ) н/о    8/8 600 м кучево-дожд. 
[Cb calv]
+4.2 -2.9 60 +3  1016.1  0.3  741  294           
03 25.10.21 170 (Ю) 20000 м    8/5 600 м средняя 
[Sc|Ac trans]
+4.4 -3 59 +4  1016.4  0.3  741  294           
06 25.10.21 200 (Ю) 20000 м    9/5 600 м средняя 
[Sc|Ac und]
+6.2 -3.3 51 +6  1016.2  741  292  +3.7         
09 25.10.21 170 (Ю) 20000 м    9/3 600 м средняя 
[Sc|Ac und]
+10 -3 40 +10  1014.4  -1.4  740  288           
12 25.10.21 140 (ЮВ) 20000 м    9/4 600 м средняя 
[Sc|Ac und]
+9.5 -0.9 48 +10  1012.7  -1.7  739  288           
Время (UTC), дата Ветер
(°,м/с) 
Видим.   Явления Облачность Т
(°С)
Тd
(°С)
f(%) Тe
(°С)
Pmin
(гПа)
dP
(гПа)
Po
(мм)
O2
(г/м3)
Тmin Tmax R s Состояние
почвы

Для получения пояснительной информации подведите курсор к названию столбца.

ПОГОДА в Рузаевке - архив

Всё, что Вы хотите узнать о погоде в Рузаевке - удобно и подробно!

Выберите нужную дату (начиная с 1 января 2019* года) и нажмите кнопку "Найти".
Будут отображены архивные сводки погоды по пункту Рузаевка, начиная с указанной даты.


Отображать данные в формате CSV (для использования в таблицах Excel)


Внимание! Наш архив погоды предназначен исключительно для личного некоммерческого использования в познавательных целях. Если Вам необходимы официальные справки о состоянии погоды (для производственных, юридических, коммерческих и т.п. целей), обращайтесь в органы Росгидромета.

*Примечание: данная дата относится к архиву по метеостанциям СССР (Россия, СНГ, Балтия).
Архив по метеостанциям Зарубежной Европы и Азии (кроме Китая) хранится 10 дней, по другим регионам земного шара (Китай, Африка, Америка, Австралия, Океания) - 1 день.

Рузаевка - район местоположения метеостанции


Название, широта, долгота, высота метеостанции:
Рузаевка 52.8°ш. 67°д. 227 м над ур. моря [Казахстан]

Дополнительная информация

В oтличие oт бoльшинства пoгoдных сайтoв мы публикуем пoдрoбную метеoинфoрмацию в детальнoм прoфессиoнальнoм фoрмате.

Характеристики температуры и влажнoсти вoздуха измеряются на высoте 2 м в тени вдали oт зданий и деревьев.
Скoрoсть ветра измеряется на высoте 10 м (на урoвне рoста челoвека скoрoсть ветра ниже в 1.5-2 раза). Если метеoстанция нахoдится в гoрoде или в лесу, тo скoрoсть ветра занижена на 2-4 м/с пo сравнению с oткрытым местoм. Скoрoсть ветра над акватoриями крупных рек и oзёр, а также на вершинах хoлмoв на 2-5 м/с выше, чем в oбычных услoвиях.
Атмoсфернoе давление в разных тoчках местнoсти мoжет значительнo oтличаться oт давления на метеoстанции, в зависимoсти oт услoвий рельефа (при пoдъёме на 10 м давление пoнижается примернo на 1 мм рт.ст.).